H1 CPF 2 NER 2020 12 5 9 340 01 glonass133 H2 1403201 9133 40001 2020 12 5 0 0 0 2020 12 8 23 45 0 900 1 1 0 0 0 1 H9 10 0 59188 0.00000 0 8984054.551 5503004.838 23237445.818 10 0 59188 900.00000 0 7317561.721 7832997.476 23150565.806 10 0 59188 1800.00000 0 5852336.326 10250271.636 22614310.144 10 0 59188 2700.00000 0 4617717.132 12689797.858 21638952.954 10 0 59188 3600.00000 0 3630793.367 15083125.664 20243297.317 10 0 59188 4500.00000 0 2895869.762 17361065.897 18454322.028 10 0 59188 5400.00000 0 2404479.804 19456421.970 16306668.867 10 0 59188 6300.00000 0 2135946.841 21306656.578 13841979.204 10 0 59188 7200.00000 0 2058469.497 22856382.402 11108091.847 10 0 59188 8100.00000 0 2130685.593 24059572.311 8158117.013 10 0 59188 9000.00000 0 2303648.328 24881395.812 5049403.972 10 0 59188 9900.00000 0 2523130.724 25299603.900 1842422.518 10 0 59188 10800.00000 0 2732160.035 25305403.362 -1400419.615 10 0 59188 11700.00000 0 2873673.726 24903783.120 -4615999.673 10 0 59188 12600.00000 0 2893183.205 24113278.449 -7741718.221 10 0 59188 13500.00000 0 2741330.984 22965182.913 -10716727.707 10 0 59188 14400.00000 0 2376231.438 21502241.407 -13483126.179 10 0 59188 15300.00000 0 1765494.608 19776879.827 -15987091.806 10 0 59188 16200.00000 0 887846.171 17849046.570 -18179935.332 10 0 59188 17100.00000 0 -265726.024 15783757.342 -20019049.542 10 0 59188 18000.00000 0 -1691348.015 13648447.156 -21468737.030 10 0 59188 18900.00000 0 -3372185.364 11510241.123 -22500900.431 10 0 59188 19800.00000 0 -5278921.959 9433258.569 -23095582.195 10 0 59188 20700.00000 0 -7370772.164 7476063.268 -23241344.096 10 0 59188 21600.00000 0 -9596984.199 5689365.772 -22935479.986 10 0 59188 22500.00000 0 -11898772.092 4114072.863 -22184058.495 10 0 59188 23400.00000 0 -14211595.690 2779764.329 -21001795.657 10 0 59188 24300.00000 0 -16467693.889 1703658.961 -19411760.606 10 0 59188 25200.00000 0 -18598765.838 890111.178 -17444920.530 10 0 59188 26100.00000 0 -20538688.711 330657.409 -15139534.056 10 0 59188 27000.00000 0 -22226159.289 4608.381 -12540404.982 10 0 59188 27900.00000 0 -23607149.810 -119839.287 -9698010.842 10 0 59188 28800.00000 0 -24637076.189 -84020.345 -6667523.185 10 0 59188 29700.00000 0 -25282588.795 63185.151 -3507738.461 10 0 59188 30600.00000 0 -25522911.612 267656.700 -279940.050 10 0 59188 31500.00000 0 -25350674.418 472559.248 2953286.557 10 0 59188 32400.00000 0 -24772203.709 620983.226 6129262.686 10 0 59188 33300.00000 0 -23807260.623 658587.149 9186426.323 10 0 59188 34200.00000 0 -22488237.051 536131.236 12065519.638 10 0 59188 35100.00000 0 -20858843.634 211795.110 14710731.573 10 0 59188 36000.00000 0 -18972344.301 -346818.265 17070773.862 10 0 59188 36900.00000 0 -16889410.750 -1161077.133 19099870.070 10 0 59188 37800.00000 0 -14675685.857 -2240182.131 20758639.110 10 0 59188 38700.00000 0 -12399156.865 -3580542.875 22014856.691 10 0 59188 39600.00000 0 -10127447.052 -5165697.371 22844080.328 10 0 59188 40500.00000 0 -7925137.763 -6966779.184 23230126.145 10 0 59188 41400.00000 0 -5851231.433 -8943514.699 23165388.281 10 0 59188 42300.00000 0 -3956860.523 -11045710.661 22650994.435 10 0 59188 43200.00000 0 -2283337.126 -13215171.890 21696794.078 10 0 59188 44100.00000 0 -860624.026 -15387970.899 20321178.713 10 0 59188 45000.00000 0 293709.196 -17496976.160 18550736.688 10 0 59188 45900.00000 0 1175001.656 -19474534.572 16419748.154 10 0 59188 46800.00000 0 1791466.735 -21255196.718 13969528.820 10 0 59188 47700.00000 0 2163609.266 -22778371.025 11247634.304 10 0 59188 48600.00000 0 2323119.013 -23990795.441 8306939.792 10 0 59188 49500.00000 0 2311287.378 -24848722.325 5204612.429 10 0 59188 50400.00000 0 2177014.656 -25319723.910 2000996.487 10 0 59188 51300.00000 0 1974492.869 -25384041.457 -1241566.648 10 0 59188 52200.00000 0 1760663.242 -25035420.386 -4459960.036 10 0 59188 53100.00000 0 1592557.260 -24281395.424 -7591529.397 10 0 59188 54000.00000 0 1524635.368 -23143013.276 -10575312.775 10 0 59188 54900.00000 0 1606237.534 -21654004.260 -13353236.569 10 0 59188 55800.00000 0 1879255.079 -19859437.937 -15871253.494 10 0 59188 56700.00000 0 2376123.596 -17813919.647 -18080399.563 10 0 59188 57600.00000 0 3118222.925 -15579404.262 -19937749.027 10 0 59188 58500.00000 0 4114752.575 -13222719.509 -21407248.467 10 0 59188 59400.00000 0 5362130.630 -10812903.179 -22460414.072 10 0 59188 60300.00000 0 6843941.884 -8418465.877 -23076879.032 10 0 59188 61200.00000 0 8531437.569 -6104693.804 -23244781.094 10 0 59188 62100.00000 0 10384565.870 -3931103.725 -22960983.607 10 0 59188 63000.00000 0 12353490.190 -1949155.489 -22231126.617 10 0 59188 63900.00000 0 14380531.635 -200316.359 -21069507.819 10 0 59188 64800.00000 0 16402454.714 1285443.710 -19498796.335 10 0 59188 65700.00000 0 18353000.951 2490664.871 -17549585.357 10 0 59188 66600.00000 0 20165564.822 3410877.909 -15259792.694 10 0 59188 67500.00000 0 21775900.637 4054534.439 -12673921.000 10 0 59188 68400.00000 0 23124747.710 4442391.651 -9842192.052 10 0 59188 69300.00000 0 24160264.538 4606379.178 -6819571.866 10 0 59188 70200.00000 0 24840170.735 4587997.186 -3664705.474 10 0 59188 71100.00000 0 25133507.581 4436314.342 -438781.782 10 0 59188 72000.00000 0 25021943.947 4205650.776 2795649.475 10 0 59188 72900.00000 0 24500573.290 3953044.361 5975886.016 10 0 59188 73800.00000 0 23578168.566 3735607.447 9040283.346 10 0 59188 74700.00000 0 22276884.493 3607885.680 11929443.875 10 0 59188 75600.00000 0 20631419.473 3619330.342 14587362.205 10 0 59188 76500.00000 0 18687671.885 3811990.773 16962504.863 10 0 59188 77400.00000 0 16500946.362 4218524.214 19008804.021 10 0 59188 78300.00000 0 14133784.160 4860607.136 20686546.554 10 0 59188 79200.00000 0 11653507.139 5747815.431 21963141.788 10 0 59188 80100.00000 0 9129576.675 6877021.367 22813753.459 10 0 59188 81000.00000 0 6630876.358 8232333.841 23221783.991 10 0 59188 81900.00000 0 4223030.371 9785585.956 23179201.763 10 0 59188 82800.00000 0 1965868.227 11497351.218 22686704.816 10 0 59188 83700.00000 0 -88859.583 13318447.672 21753717.307 10 0 59188 84600.00000 0 -1899420.612 15191868.913 20398218.018 10 0 59188 85500.00000 0 -3435613.776 17055062.712 18646403.241 10 0 59189 0.00000 0 -4679794.180 18842463.293 16532189.524 10 0 59189 900.00000 0 -5627366.703 20488172.053 14096564.434 10 0 59189 1800.00000 0 -6286728.261 21928674.969 11386797.818 10 0 59189 2700.00000 0 -6678660.394 23105481.988 8455526.988 10 0 59189 3600.00000 0 -6835199.249 23967577.943 5359734.003 10 0 59189 4500.00000 0 -6798030.106 24473580.233 2159634.594 10 0 59189 5400.00000 0 -6616475.414 24593511.793 -1082499.239 10 0 59189 6300.00000 0 -6345162.230 24310113.397 -4303559.354 10 0 59189 7200.00000 0 -6041468.977 23619638.937 -7440839.503 10 0 59189 8100.00000 0 -5762860.988 22532099.296 -10433266.029 10 0 59189 9000.00000 0 -5564229.155 21070943.931 -13222596.152 10 0 59189 9900.00000 0 -5495345.737 19272193.322 -15754559.337 10 0 59189 10800.00000 0 -5598546.343 17183058.777 -17979918.766 10 0 59189 11700.00000 0 -5906737.162 14860107.802 -19855431.747 10 0 59189 12600.00000 0 -6441812.474 12367052.418 -21344690.140 10 0 59189 13500.00000 0 -7213549.721 9772253.428 -22418824.683 10 0 59189 14400.00000 0 -8219029.061 7146045.244 -23057059.990 10 0 59189 15300.00000 0 -9442601.868 4557993.125 -23247110.125 10 0 59189 16200.00000 0 -10856409.487 2074196.921 -22985407.913 10 0 59189 17100.00000 0 -12421430.401 -245246.966 -22277164.396 10 0 59189 18000.00000 0 -14089011.750 -2348520.620 -21136258.070 10 0 59189 18900.00000 0 -15802821.012 -4194003.301 -19584956.749 10 0 59189 19800.00000 0 -17501136.171 -5751755.560 -17653477.923 10 0 59189 20700.00000 0 -19119378.563 -7004508.676 -15379396.525 10 0 59189 21600.00000 0 -20592782.663 -7948120.216 -12806911.718 10 0 59189 22500.00000 0 -21859091.279 -8591478.665 -9985986.986 10 0 59189 23400.00000 0 -22861163.651 -8955862.993 -6971380.170 10 0 59189 24300.00000 0 -23549387.554 -9073785.800 -3821582.162 10 0 59189 25200.00000 0 -23883794.684 -8987370.035 -597684.677 10 0 59189 26100.00000 0 -23835790.957 -8746328.748 2637801.031 10 0 59189 27000.00000 0 -23389429.411 -8405633.699 5822151.777 10 0 59189 27900.00000 0 -22542172.456 -8022971.636 8893643.250 10 0 59189 28800.00000 0 -21305111.461 -7656095.642 11792740.711 10 0 59189 29700.00000 0 -19702634.243 -7360183.306 14463246.910 10 0 59189 30600.00000 0 -17771553.846 -7185312.981 16853385.492 10 0 59189 31500.00000 0 -15559734.381 -7174164.361 18916799.305 10 0 59189 32400.00000 0 -13124270.353 -7360040.229 20613444.936 10 0 59189 33300.00000 0 -10529294.259 -7765292.755 21910366.697 10 0 59189 34200.00000 0 -7843502.610 -8400220.975 22782335.494 10 0 59189 35100.00000 0 -5137501.995 -9262486.516 23212340.558 10 0 59189 36000.00000 0 -2481084.213 -10337073.191 23191924.597 10 0 59189 36900.00000 0 59457.388 -11596793.523 22721355.653 10 0 59189 37800.00000 0 2423859.880 -13003322.542 21809631.870 10 0 59189 38700.00000 0 4560166.647 -14508717.210 20474318.266 10 0 59189 39600.00000 0 6426653.004 -16057359.330 18741217.721 10 0 59189 40500.00000 0 7993321.724 -17588241.882 16643881.413 10 0 59189 41400.00000 0 9242906.353 -19037503.884 14222967.048 10 0 59189 42300.00000 0 10171340.392 -20341107.910 11525456.382 10 0 59189 43200.00000 0 10787672.912 -21437547.851 8603746.425 10 0 59189 44100.00000 0 11113434.331 -22270472.640 5514631.508 10 0 59189 45000.00000 0 11181479.417 -22791114.631 2318196.048 10 0 59189 45900.00000 0 11034356.928 -22960419.225 -923360.175 10 0 59189 46800.00000 0 10722275.576 -22750784.669 -4146940.662 10 0 59189 47700.00000 0 10300753.393 -22147337.348 -7289789.978 10 0 59189 48600.00000 0 9828051.228 -21148687.621 -10290725.450 10 0 59189 49500.00000 0 9362500.406 -19767133.360 -13091337.674 10 0 59189 50400.00000 0 8959839.014 -18028301.976 -15637135.250 10 0 59189 51300.00000 0 8670670.822 -15970245.648 -17878610.714 10 0 59189 52200.00000 0 8538155.326 -13642027.628 -19772206.362 10 0 59189 53100.00000 0 8596027.320 -11101859.127 -21281160.944 10 0 59189 54000.00000 0 8867030.044 -8414864.957 -22376220.988 10 0 59189 54900.00000 0 9361828.166 -5650571.531 -23036203.363 10 0 59189 55800.00000 0 10078446.284 -2880222.191 -23248398.855 10 0 59189 56700.00000 0 11002256.319 -174031.571 -23008809.746 10 0 59189 57600.00000 0 12106513.988 2401507.162 -22322217.652 10 0 59189 58500.00000 0 13353421.431 4786150.852 -21202081.086 10 0 59189 59400.00000 0 14695671.064 6928166.683 -19670265.427 10 0 59189 60300.00000 0 16078405.680 8786231.676 -17756611.035 10 0 59189 61200.00000 0 17441512.440 10330893.896 -15498348.218 10 0 59189 62100.00000 0 18722154.539 11545536.363 -12939370.628 10 0 59189 63000.00000 0 19857434.499 12426805.398 -10129381.131 10 0 59189 63900.00000 0 20787077.481 12984487.346 -7122926.806 10 0 59189 64800.00000 0 21456022.281 13240840.715 -3978341.613 10 0 59189 65700.00000 0 21816811.484 13229413.299 -756617.115 10 0 59189 66600.00000 0 21831680.634 12993395.285 2479776.922 10 0 59189 67500.00000 0 21474258.869 12583578.626 5668099.410 10 0 59189 68400.00000 0 20730809.614 12056009.225 8746549.101 10 0 59189 69300.00000 0 19600959.173 11469431.184 11655456.809 10 0 59189 70200.00000 0 18097882.297 10882630.896 14338435.910 10 0 59189 71100.00000 0 16247936.337 10351792.709 16743469.389 10 0 59189 72000.00000 0 14089758.519 9927977.381 18823912.743 10 0 59189 72900.00000 0 11672862.950 9654829.161 20539393.974 10 0 59189 73800.00000 0 9055794.605 9566607.879 21856593.812 10 0 59189 74700.00000 0 6303915.858 9686628.786 22749891.457 10 0 59189 75600.00000 0 3486916.128 10026175.997 23201863.741 10 0 59189 76500.00000 0 676146.669 10583935.796 23203628.102 10 0 59189 77400.00000 0 -2058110.089 11345974.466 22755022.553 10 0 59189 78300.00000 0 -4649324.488 12286262.768 21864618.698 10 0 59189 79200.00000 0 -7037246.378 13367726.407 20549566.771 10 0 59189 80100.00000 0 -9170170.269 14543779.767 18835274.705 10 0 59189 81000.00000 0 -11006845.100 15760279.831 16754926.374 10 0 59189 81900.00000 0 -12517949.331 16957819.251 14348847.136 10 0 59189 82800.00000 0 -13687069.742 18074262.799 11663728.040 10 0 59189 83700.00000 0 -14511143.095 19047420.737 8751722.910 10 0 59189 84600.00000 0 -15000342.198 19817746.234 5669435.380 10 0 59189 85500.00000 0 -15177411.333 20330942.421 2476815.535 10 0 59190 0.00000 0 -15076479.480 20540368.075 -764011.991 10 0 59190 900.00000 0 -14741402.057 20409138.708 -3989965.404 10 0 59190 1800.00000 0 -14223702.091 19911834.078 -7138242.855 10 0 59190 2700.00000 0 -13580199.081 19035736.628 -10147555.345 10 0 59190 3600.00000 0 -12870427.018 17781549.550 -12959329.340 10 0 59190 4500.00000 0 -12153952.178 16163561.694 -15518854.841 10 0 59190 5400.00000 0 -11487705.341 14209252.369 -17776355.709 10 0 59190 6300.00000 0 -10923442.234 11958351.978 -19687960.891 10 0 59190 7200.00000 0 -10505440.240 9461397.842 -21216557.372 10 0 59190 8100.00000 0 -10268529.015 6777845.651 -22332508.470 10 0 59190 9000.00000 0 -10236538.100 3973815.528 -23014223.976 10 0 59190 9900.00000 0 -10421226.717 1119566.869 -23248571.707 10 0 59190 10800.00000 0 -10821740.302 -1713192.956 -23031123.337 10 0 59190 11700.00000 0 -11424615.970 -4454054.367 -22366230.594 10 0 59190 12600.00000 0 -12204336.018 -7036592.140 -21266931.135 10 0 59190 13500.00000 0 -13124405.485 -9400882.017 -19754686.626 10 0 59190 14400.00000 0 -14138907.965 -11495743.908 -17858958.613 10 0 59190 15300.00000 0 -15194473.855 -13280619.776 -15616630.776 10 0 59190 16200.00000 0 -16232578.067 -14727009.644 -13071288.962 10 0 59190 17100.00000 0 -17192070.562 -15819407.687 -10272372.954 10 0 59190 18000.00000 0 -18011833.320 -16555701.043 -7274216.473 10 0 59190 18900.00000 0 -18633452.146 -16947016.450 -4134993.898 10 0 59190 19800.00000 0 -19003791.130 -17017022.769 -915593.979 10 0 59190 20700.00000 0 -19077361.595 -16800719.994 2321557.675 10 0 59190 21600.00000 0 -18818386.041 -16342766.750 5513704.705 10 0 59190 22500.00000 0 -18202470.265 -15695417.409 8598971.550 10 0 59190 23400.00000 0 -17217813.259 -14916156.070 11517557.132 10 0 59190 24300.00000 0 -15865903.693 -14065127.157 14212887.935 10 0 59190 25200.00000 0 -14161673.138 -13202470.701 16632708.609 10 0 59190 26100.00000 0 -12133098.774 -12385674.139 18730089.410 10 0 59190 27000.00000 0 -9820271.012 -11667051.643 20464331.582 10 0 59190 27900.00000 0 -7273963.582 -11091456.546 21801753.756 10 0 59190 28800.00000 0 -4553764.158 -10694322.689 22716344.536 10 0 59190 29700.00000 0 -1725841.709 -10500116.817 23190269.054 10 0 59190 30600.00000 0 1139558.370 -10521267.137 23214219.774 10 0 59190 31500.00000 0 3970788.734 -10757613.399 22787604.581 10 0 59190 32400.00000 0 6697534.582 -11196402.310 21918568.072 10 0 59190 33300.00000 0 9253495.812 -11812829.374 20623844.860 10 0 59190 34200.00000 0 11578906.129 -12571105.486 18928446.775 10 0 59190 35100.00000 0 13622784.970 -13426004.533 16865188.887 10 0 59190 36000.00000 0 15344828.688 -14324827.874 14474062.371 10 0 59190 36900.00000 0 16716862.105 -15209703.697 11801465.391 10 0 59190 37800.00000 0 17723789.671 -16020124.700 8899306.086 10 0 59190 38700.00000 0 18364006.319 -16695616.977 5823994.582 10 0 59190 39600.00000 0 18649250.688 -17178426.876 2635343.590 10 0 59190 40500.00000 0 18603907.087 -17416111.413 -604600.735 10 0 59190 41400.00000 0 18263786.048 -17363921.476 -3832774.290 10 0 59190 42300.00000 0 17674435.549 -16986875.646 -6986332.123 10 0 59190 43200.00000 0 16889055.212 -16261435.481 -10003881.958 10 0 59190 44100.00000 0 15966102.720 -15176710.054 -12826688.961 10 0 59190 45000.00000 0 14966694.842 -13735137.681 -15399827.090 10 0 59190 45900.00000 0 13951914.085 -11952615.083 -17673253.801 10 0 59190 46800.00000 0 12980135.758 -9858067.824 -19602786.623 10 0 59190 47700.00000 0 12104489.073 -7492479.613 -21150962.348 10 0 59190 48600.00000 0 11370559.768 -4907420.904 -22287762.264 10 0 59190 49500.00000 0 10814431.105 -2163138.197 -22991189.836 10 0 59190 50400.00000 0 10461145.429 673716.191 -23247690.230 10 0 59190 51300.00000 0 10323650.325 3532619.397 -23052404.394 10 0 59190 52200.00000 0 10402272.826 6341873.070 -22409253.626 10 0 59190 53100.00000 0 10684742.757 9031346.488 -21330853.787 10 0 59190 54000.00000 0 11146763.143 11535154.444 -19838261.525 10 0 59190 54900.00000 0 11753102.796 13794159.534 -17960557.941 10 0 59190 55800.00000 0 12459164.242 15758195.881 -15734278.143 10 0 59190 56700.00000 0 13212960.473 17387923.178 -13202697.935 10 0 59190 57600.00000 0 13957416.875 18656235.327 -10414991.510 10 0 59190 58500.00000 0 14632901.213 19549166.453 -7425276.489 10 0 59190 59400.00000 0 15179875.076 20066258.076 -4291564.741 10 0 59190 60300.00000 0 15541555.097 20220373.601 -1074639.151 10 0 59190 61200.00000 0 15666471.967 20036969.240 2163121.916 10 0 59190 62100.00000 0 15510819.495 19552853.114 5358949.866 10 0 59190 63000.00000 0 15040494.820 18814485.508 8450897.712 10 0 59190 63900.00000 0 14232743.756 17875892.239 11379035.177 10 0 59190 64800.00000 0 13077341.778 16796279.131 14086604.275 10 0 59190 65700.00000 0 11577260.422 15637447.777 16521113.477 10 0 59190 66600.00000 0 9748790.327 14461120.976 18635349.672 10 0 59190 67500.00000 0 7621114.604 13326289.690 20388288.950 10 0 59190 68400.00000 0 5235348.919 12286692.403 21745889.159 10 0 59190 69300.00000 0 2643086.754 11388532.109 22681749.331 10 0 59190 70200.00000 0 -95491.333 10668526.264 23177623.586 10 0 59190 71100.00000 0 -2913867.647 10152371.183 23223779.740 10 0 59190 72000.00000 0 -5741704.686 9853685.266 22819195.451 10 0 59190 72900.00000 0 -8507526.901 9773475.572 21971587.745 10 0 59190 73800.00000 0 -11141456.914 9900150.602 20697274.556 10 0 59190 74700.00000 0 -13577893.404 10210079.418 19020870.032 10 0 59190 75600.00000 0 -15758020.056 10668674.362 16974818.388 10 0 59190 76500.00000 0 -17632041.430 11231952.577 14598774.145 10 0 59190 77400.00000 0 -19161052.433 11848511.167 11938839.781 10 0 59190 78300.00000 0 -20318463.182 12461833.066 9046674.732 10 0 59190 79200.00000 0 -21090919.287 13012826.247 5978492.489 10 0 59190 80100.00000 0 -21478678.652 13442488.578 2793965.247 10 0 59190 81000.00000 0 -21495428.861 13694584.814 -444942.344 10 0 59190 81900.00000 0 -21167552.917 13718221.282 -3675186.985 10 0 59190 82800.00000 0 -20532874.651 13470207.924 -6833883.421 10 0 59190 83700.00000 0 -19638937.427 12917106.196 -9859538.802 10 0 59190 84600.00000 0 -18540889.696 12036874.676 -12693259.507 10 0 59190 85500.00000 0 -17299067.768 10820041.483 -15279905.732 10 0 59191 0.00000 0 -15976378.962 9270352.845 -17569170.474 10 0 59191 900.00000 0 -14635596.674 7404869.082 -19516561.587 10 0 59191 1800.00000 0 -13336681.725 5253504.562 -21084266.913 10 0 59191 2700.00000 0 -12134244.403 2858028.464 -22241886.584 10 0 59191 3600.00000 0 -11075252.714 270569.739 -22967018.219 10 0 59191 4500.00000 0 -10197083.998 -2448312.490 -23245684.391 10 0 59191 5400.00000 0 -9526000.547 -5231912.372 -23072594.975 10 0 59191 6300.00000 0 -9076112.366 -8009919.846 -22451240.091 10 0 59191 7200.00000 0 -8848869.373 -10711116.676 -21393812.666 10 0 59191 8100.00000 0 -8833102.970 -13266114.436 -19920962.827 10 0 59191 9000.00000 0 -9005613.906 -15610021.361 -18061389.392 10 0 59191 9900.00000 0 -9332280.435 -17684927.951 -15851276.781 10 0 59191 10800.00000 0 -9769639.135 -19442109.078 -13333588.442 10 0 59191 11700.00000 0 -10266870.992 -20843852.096 -10557230.524 10 0 59191 12600.00000 0 -10768108.540 -21864836.001 -7576102.044 10 0 59191 13500.00000 0 -11214966.466 -22493005.473 -4448049.847 10 0 59191 14400.00000 0 -11549188.808 -22729904.589 -1233748.485 10 0 59191 15300.00000 0 -11715301.065 -22590457.439 2004473.341 10 0 59191 16200.00000 0 -11663155.404 -22102205.955 5203837.171 10 0 59191 17100.00000 0 -11350261.602 -21304037.731 8302326.917 10 0 59191 18000.00000 0 -10743805.458 -20244457.842 11239885.370 10 0 59191 18900.00000 0 -9822269.423 -18979477.485 13959572.285 10 0 59191 19800.00000 0 -8576586.775 -17570208.075 16408662.062 10 0 59191 20700.00000 0 -7010780.171 -16080261.530 18539660.167 10 0 59191 21600.00000 0 -5142056.711 -14573065.288 20311219.277 10 0 59191 22500.00000 0 -3000354.147 -13109204.002 21688937.943 10 0 59191 23400.00000 0 -627355.635 -11743898.600 22646026.797 10 0 59191 24300.00000 0 1924987.724 -10524727.625 23163829.815 10 0 59191 25200.00000 0 4596366.981 -9489685.623 23232190.673 10 0 59191 26100.00000 0 7320380.427 -8665659.554 22849656.983 10 0 59191 27000.00000 0 10027061.341 -8067386.773 22023518.031 10 0 59191 27900.00000 0 12645564.910 -7696938.305 20769674.578 10 0 59191 28800.00000 0 15106903.732 -7543749.372 19112342.264 10 0 59191 29700.00000 0 17346619.006 -7585196.262 17083593.275 10 0 59191 30600.00000 0 19307276.576 -7787695.761 14722743.951 10 0 59191 31500.00000 0 20940683.717 -8108281.305 12075599.186 10 0 59191 32400.00000 0 22209733.842 -8496589.613 9193567.432 10 0 59191 33300.00000 0 23089801.474 -8897173.933 6132662.894 10 0 59191 34200.00000 0 23569628.466 -9252045.777 2952414.272 10 0 59191 35100.00000 0 23651663.811 -9503336.873 -285298.512 10 0 59191 36000.00000 0 23351842.528 -9595967.582 -3517456.341 10 0 59191 36900.00000 0 22698812.923 -9480207.440 -6681137.048 10 0 59191 37800.00000 0 21732645.169 -9114017.884 -9714750.486 10 0 59191 38700.00000 0 20503076.261 -8465076.417 -12559247.324 10 0 59191 39600.00000 0 19067366.259 -7512395.132 -15159276.786 10 0 59191 40500.00000 0 17487857.171 -6247463.832 -17464269.952 10 0 59191 41400.00000 0 15829338.314 -4674868.423 -19429426.955 10 0 59191 42300.00000 0 14156329.956 -2812357.668 -21016588.497 10 0 59191 43200.00000 0 12530400.042 -690354.843 -22194974.955 10 0 59191 44100.00000 0 11007626.954 1649065.696 -22941779.075 10 0 59191 45000.00000 0 9636314.659 4153694.437 -23242601.423 10 0 59191 45900.00000 0 8455055.405 6763132.075 -23091720.959 10 0 59191 46800.00000 0 7491220.172 9411083.377 -22492196.350 10 0 59191 47700.00000 0 6759938.812 12027904.259 -21455796.892 10 0 59191 48600.00000 0 6263611.064 14543296.399 -20002765.072 10 0 59191 49500.00000 0 5991967.281 16889037.879 -18161415.910 10 0 59191 50400.00000 0 5922674.717 19001636.797 -15967581.244 10 0 59191 51300.00000 0 6022462.415 20824798.253 -13463909.912 10 0 59191 52200.00000 0 6248716.107 22311602.916 -10699037.442 10 0 59191 53100.00000 0 6551475.004 23426307.301 -7726641.382 10 0 59191 54000.00000 0 6875745.604 24145691.760 -4604400.466 10 0 59191 54900.00000 0 7164034.490 24459900.931 -1392877.661 10 0 59191 55800.00000 0 7358993.006 24372742.517 1845651.294 10 0 59191 56700.00000 0 7406062.088 23901432.811 5048401.348 10 0 59191 57600.00000 0 7256005.618 23075800.400 8153290.442 10 0 59191 58500.00000 0 6867225.374 21936981.941 11100137.361 10 0 59191 59400.00000 0 6207759.866 20535664.995 13831822.250 10 0 59191 60300.00000 0 5256882.510 18929951.551 16295387.781 10 0 59191 61200.00000 0 4006231.403 17182931.573 18443060.047 10 0 59191 62100.00000 0 2460422.349 15360067.670 20233170.029 10 0 59191 63000.00000 0 637118.204 13526499.669 21630958.395 10 0 59191 63900.00000 0 -1433449.787 11744381.105 22609248.473 10 0 59191 64800.00000 0 -3709490.484 10070358.090 23148974.836 10 0 59191 65700.00000 0 -6139151.025 8553295.159 23239557.394 10 0 59191 66600.00000 0 -8662444.202 7232342.453 22879113.655 10 0 59191 67500.00000 0 -11213526.737 6135424.543 22074504.650 10 0 59191 68400.00000 0 -13723235.390 5278213.744 20841212.937 10 0 59191 69300.00000 0 -16121776.713 4663630.873 19203054.099 10 0 59191 70200.00000 0 -18341459.489 4281894.410 17191726.237 10 0 59191 71100.00000 0 -20319356.604 4111116.177 14846204.979 10 0 59191 72000.00000 0 -21999785.318 4118418.698 12211994.719 10 0 59191 72900.00000 0 -23336502.111 4261527.284 9340249.715 10 0 59191 73800.00000 0 -24294519.673 4490769.559 6286781.507 10 0 59191 74700.00000 0 -24851469.125 4751397.659 3110971.864 10 0 59191 75600.00000 0 -24998449.581 4986134.147 -125387.430 10 0 59191 76500.00000 0 -24740328.697 5137832.905 -3359304.737 10 0 59191 77400.00000 0 -24095481.210 5152141.001 -6527824.120 10 0 59191 78300.00000 0 -23094976.401 4980047.306 -9569261.101 10 0 59191 79200.00000 0 -21781248.997 4580208.344 -12424413.369 10 0 59191 80100.00000 0 -20206310.098 3920951.401 -15037721.644 10 0 59191 81000.00000 0 -18429574.250 2981868.795 -17358357.200 10 0 59191 81900.00000 0 -16515394.979 1754934.737 -19341214.276 10 0 59191 82800.00000 0 -14530413.260 245096.763 -20947787.718 10 0 59191 83700.00000 0 -12540830.915 -1529683.892 -22146918.949 10 0 59191 84600.00000 0 -10609723.612 -3538945.248 -22915396.150 10 0 59191 85500.00000 0 -8794506.070 -5740769.624 -23238397.662 99